Retour au catalogue

MOLNIYA 2-14

ActifCommunicationsHEO
NORAD 8195·PAYLOAD·🇷🇺 Russia

Lancé Sep 9, 1975 depuis Plesetsk Cosmodrome

Loading…

Prochains Passages (prochaines 24 heures)

TLE

FraisSource: Space-Track

Époque: Sep 11, 2026, 01:47 UTC

1 08195U 75081A   26254.07498748  .00001129  00000-0  00000-0 0  9993
2 08195  64.8774  23.8684 6862698 282.1828  14.1013  2.02064947374141

Suivez MOLNIYA 2-14 en temps réel avec AllMySat

Download on the App Store